Location: Waco, TX
(31.5480°N, 97.1670°W)
Time: 08:48:44
(UTC-05:00)

Hubble Space Telescope - Visible Passes

Search period start: 18 June 2018 00:00
Search period end: 28 June 2018 00:00
Orbit: 537 x 541 km, 28.5° (Epoch: 17 June)

Date Brightness Start Highest point End Pass type
(mag) Time Alt. Az. Time Alt. Az. Time Alt. Az.
18 Jun 1.1 21:25:09 10° W 21:29:09 49° S 21:32:17 15° ESE visible
18 Jun 3.1 23:06:41 10° WSW 23:07:38 15° WSW 23:07:38 15° WSW visible
19 Jun 1.3 21:14:50 10° W 21:18:47 45° S 21:22:21 12° ESE visible
19 Jun 3.1 22:56:35 10° WSW 22:57:42 15° SW 22:57:42 15° SW visible
20 Jun 1.5 21:04:32 10° W 21:08:25 40° SSW 21:12:17 10° ESE visible
20 Jun 3.1 22:46:37 10° WSW 22:47:46 14° SW 22:47:46 14° SW visible
21 Jun 3.2 22:36:55 10° SW 22:37:50 12° SW 22:37:50 12° SW visible
